Year,Month,Day,Hour,Minute,Value (Times are PST for windgust in km/hr)
2017,09,30,00,00,1.60
2017,09,30,00,04,1.60
2017,09,30,00,34,1.60
2017,09,30,00,59,1.60
2017,09,30,01,00,1.60
2017,09,30,01,01,3.20
2017,09,30,01,02,1.60
2017,09,30,01,26,1.60
2017,09,30,01,39,3.20
2017,09,30,01,40,3.20
2017,09,30,01,51,3.20
2017,09,30,01,52,1.60
2017,09,30,02,14,6.40
2017,09,30,02,15,4.80
2017,09,30,02,16,3.20
2017,09,30,02,17,1.60
2017,09,30,02,18,1.60
2017,09,30,02,19,4.80
2017,09,30,02,20,4.80
2017,09,30,02,21,3.20
2017,09,30,02,22,4.80
2017,09,30,02,23,6.40
2017,09,30,02,24,4.80
2017,09,30,02,25,3.20
2017,09,30,02,26,3.20
2017,09,30,02,27,3.20
2017,09,30,02,28,3.20
2017,09,30,02,29,4.80
2017,09,30,02,30,3.20
2017,09,30,02,31,3.20
2017,09,30,02,32,4.80
2017,09,30,02,33,6.40
2017,09,30,02,34,4.80
2017,09,30,02,35,8.10
2017,09,30,02,36,6.40
2017,09,30,02,37,4.80
2017,09,30,02,38,3.20
2017,09,30,02,39,3.20
2017,09,30,02,40,6.40
2017,09,30,02,41,4.80
2017,09,30,02,42,4.80
2017,09,30,02,43,6.40
2017,09,30,02,44,8.10
2017,09,30,02,45,6.40
2017,09,30,02,46,6.40
2017,09,30,02,47,8.10
2017,09,30,02,48,9.60
2017,09,30,02,49,11.30
2017,09,30,02,50,11.30
2017,09,30,02,51,8.10
2017,09,30,02,52,4.80
2017,09,30,02,53,9.60
2017,09,30,02,54,8.10
2017,09,30,02,55,8.10
2017,09,30,02,56,8.10
2017,09,30,02,57,8.10
2017,09,30,02,58,9.60
2017,09,30,02,59,6.40
2017,09,30,03,00,8.10
2017,09,30,03,01,9.60
2017,09,30,03,02,4.80
2017,09,30,03,03,6.40
2017,09,30,03,04,6.40
2017,09,30,03,05,8.10
2017,09,30,03,06,4.80
2017,09,30,03,07,6.40
2017,09,30,03,08,4.80
2017,09,30,03,09,4.80
2017,09,30,03,10,3.20
2017,09,30,03,11,4.80
2017,09,30,03,12,4.80
2017,09,30,03,13,8.10
2017,09,30,03,14,6.40
2017,09,30,03,15,6.40
2017,09,30,03,16,6.40
2017,09,30,03,17,4.80
2017,09,30,03,18,4.80
2017,09,30,03,19,3.20
2017,09,30,03,20,4.80
2017,09,30,03,21,4.80
2017,09,30,03,22,3.20
2017,09,30,03,23,3.20
2017,09,30,03,24,3.20
2017,09,30,03,25,3.20
2017,09,30,03,26,3.20
2017,09,30,03,27,4.80
2017,09,30,03,28,4.80
2017,09,30,03,29,4.80
2017,09,30,03,30,4.80
2017,09,30,03,31,4.80
2017,09,30,03,32,6.40
2017,09,30,03,33,6.40
2017,09,30,03,34,4.80
2017,09,30,03,35,4.80
2017,09,30,03,36,4.80
2017,09,30,03,37,8.10
2017,09,30,03,38,6.40
2017,09,30,03,39,8.10
2017,09,30,03,40,6.40
2017,09,30,03,41,4.80
2017,09,30,03,42,3.20
2017,09,30,03,43,4.80
2017,09,30,03,44,3.20
2017,09,30,03,45,1.60
2017,09,30,03,46,6.40
2017,09,30,03,47,6.40
2017,09,30,03,48,6.40
2017,09,30,03,49,8.10
2017,09,30,03,50,4.80
2017,09,30,03,51,4.80
2017,09,30,03,52,3.20
2017,09,30,03,53,4.80
2017,09,30,03,54,4.80
2017,09,30,03,55,3.20
2017,09,30,03,56,4.80
2017,09,30,03,58,3.20
2017,09,30,03,59,4.80
2017,09,30,04,00,1.60
2017,09,30,04,01,1.60
2017,09,30,04,02,3.20
2017,09,30,04,03,3.20
2017,09,30,04,12,4.80
2017,09,30,04,13,6.40
2017,09,30,04,14,1.60
2017,09,30,04,16,1.60
2017,09,30,04,17,1.60
2017,09,30,04,18,1.60
2017,09,30,04,19,3.20
2017,09,30,04,20,3.20
2017,09,30,04,21,1.60
2017,09,30,04,22,3.20
2017,09,30,04,25,1.60
2017,09,30,04,26,3.20
2017,09,30,04,28,1.60
2017,09,30,04,29,3.20
2017,09,30,04,30,3.20
2017,09,30,04,31,1.60
2017,09,30,04,33,1.60
2017,09,30,04,44,1.60
2017,09,30,04,45,3.20
2017,09,30,04,46,3.20
2017,09,30,04,47,3.20
2017,09,30,04,48,3.20
2017,09,30,04,49,3.20
2017,09,30,04,50,3.20
2017,09,30,05,18,4.80
2017,09,30,05,19,4.80
2017,09,30,05,20,4.80
2017,09,30,05,21,4.80
2017,09,30,05,22,4.80
2017,09,30,05,23,8.10
2017,09,30,05,24,8.10
2017,09,30,05,25,4.80
2017,09,30,05,26,3.20
2017,09,30,05,40,6.40
2017,09,30,05,41,8.10
2017,09,30,05,42,6.40
2017,09,30,05,58,4.80
2017,09,30,05,59,3.20
2017,09,30,06,13,6.40
2017,09,30,06,14,4.80
2017,09,30,06,15,6.40
2017,09,30,06,16,6.40
2017,09,30,06,17,6.40
2017,09,30,06,18,6.40
2017,09,30,06,19,8.10
2017,09,30,06,20,6.40
2017,09,30,06,21,6.40
2017,09,30,06,22,6.40
2017,09,30,06,23,8.10
2017,09,30,06,24,6.40
2017,09,30,06,25,6.40
2017,09,30,06,26,9.60
2017,09,30,06,27,11.30
2017,09,30,06,28,11.30
2017,09,30,06,29,11.30
2017,09,30,06,30,9.60
2017,09,30,06,31,9.60
2017,09,30,06,32,8.10
2017,09,30,06,33,8.10
2017,09,30,06,34,6.40
2017,09,30,06,35,8.10
2017,09,30,06,36,9.60
2017,09,30,06,37,8.10
2017,09,30,06,38,6.40
2017,09,30,06,39,4.80
2017,09,30,06,40,4.80
2017,09,30,06,41,4.80
2017,09,30,06,42,4.80
2017,09,30,06,43,4.80
2017,09,30,06,44,6.40
2017,09,30,06,45,6.40
2017,09,30,06,46,4.80
2017,09,30,06,47,4.80
2017,09,30,06,48,6.40
2017,09,30,06,49,6.40
2017,09,30,06,50,4.80
2017,09,30,06,51,6.40
2017,09,30,06,52,6.40
2017,09,30,06,53,9.60
2017,09,30,06,54,9.60
2017,09,30,06,55,9.60
2017,09,30,06,56,11.30
2017,09,30,06,57,8.10
2017,09,30,06,58,8.10
2017,09,30,06,59,6.40
2017,09,30,07,00,6.40
2017,09,30,07,01,6.40
2017,09,30,07,02,3.20
2017,09,30,07,03,3.20
2017,09,30,07,16,3.20
2017,09,30,07,17,3.20
2017,09,30,07,18,6.40
2017,09,30,07,19,3.20
2017,09,30,07,20,1.60
2017,09,30,07,24,6.40
2017,09,30,07,25,4.80
2017,09,30,07,26,4.80
2017,09,30,07,27,3.20
2017,09,30,07,43,6.40
2017,09,30,07,44,6.40
2017,09,30,07,45,8.10
2017,09,30,07,46,8.10
2017,09,30,07,47,8.10
2017,09,30,07,48,6.40
2017,09,30,07,49,8.10
2017,09,30,07,50,8.10
2017,09,30,07,51,6.40
2017,09,30,07,52,8.10
2017,09,30,07,53,9.60
2017,09,30,07,54,8.10
2017,09,30,07,55,9.60
2017,09,30,07,56,9.60
2017,09,30,07,57,8.10
2017,09,30,07,58,9.60
2017,09,30,07,59,14.50
2017,09,30,08,00,16.10
2017,09,30,08,01,9.60
2017,09,30,08,02,14.50
2017,09,30,08,03,14.50
2017,09,30,08,04,14.50
2017,09,30,08,05,11.30
2017,09,30,08,06,11.30
2017,09,30,08,07,14.50
2017,09,30,08,08,16.10
2017,09,30,08,09,16.10
2017,09,30,08,10,14.50
2017,09,30,08,11,14.50
2017,09,30,08,12,12.90
2017,09,30,08,13,11.30
2017,09,30,08,14,11.30
2017,09,30,08,15,11.30
2017,09,30,08,16,17.70
2017,09,30,08,17,11.30
2017,09,30,08,18,16.10
2017,09,30,08,19,14.50
2017,09,30,08,20,11.30
2017,09,30,08,21,19.30
2017,09,30,08,22,16.10
2017,09,30,08,23,16.10
2017,09,30,08,24,16.10
2017,09,30,08,25,14.50
2017,09,30,08,26,17.70
2017,09,30,08,27,16.10
2017,09,30,08,28,12.90
2017,09,30,08,29,9.60
2017,09,30,08,30,9.60
2017,09,30,08,31,11.30
2017,09,30,08,32,14.50
2017,09,30,08,33,12.90
2017,09,30,08,34,16.10
2017,09,30,08,35,9.60
2017,09,30,08,36,9.60
2017,09,30,08,37,9.60
2017,09,30,08,38,11.30
2017,09,30,08,39,8.10
2017,09,30,08,40,17.70
2017,09,30,08,41,17.70
2017,09,30,08,42,17.70
2017,09,30,08,43,14.50
2017,09,30,08,44,14.50
2017,09,30,08,45,12.90
2017,09,30,08,46,12.90
2017,09,30,08,47,12.90
2017,09,30,08,48,14.50
2017,09,30,08,49,16.10
2017,09,30,08,50,19.30
2017,09,30,08,51,17.70
2017,09,30,08,52,14.50
2017,09,30,08,53,16.10
2017,09,30,08,54,16.10
2017,09,30,08,55,16.10
2017,09,30,08,56,16.10
2017,09,30,08,57,17.70
2017,09,30,08,58,11.30
2017,09,30,08,59,14.50
2017,09,30,09,00,11.30
2017,09,30,09,01,17.70
2017,09,30,09,02,20.90
2017,09,30,09,03,19.30
2017,09,30,09,04,14.50
2017,09,30,09,05,19.30
2017,09,30,09,06,11.30
2017,09,30,09,07,11.30
2017,09,30,09,08,9.60
2017,09,30,09,09,14.50
2017,09,30,09,10,12.90
2017,09,30,09,11,12.90
2017,09,30,09,12,14.50
2017,09,30,09,13,19.30
2017,09,30,09,14,11.30
2017,09,30,09,15,11.30
2017,09,30,09,16,8.10
2017,09,30,09,17,8.10
2017,09,30,09,18,11.30
2017,09,30,09,19,11.30
2017,09,30,09,20,8.10
2017,09,30,09,21,9.60
2017,09,30,09,22,8.10
2017,09,30,09,23,11.30
2017,09,30,09,24,8.10
2017,09,30,09,25,9.60
2017,09,30,09,26,9.60
2017,09,30,09,27,11.30
2017,09,30,09,28,16.10
2017,09,30,09,29,14.50
2017,09,30,09,30,8.10
2017,09,30,09,31,6.40
2017,09,30,09,32,8.10
2017,09,30,09,33,9.60
2017,09,30,09,34,14.50
2017,09,30,09,35,9.60
2017,09,30,09,36,11.30
2017,09,30,09,37,8.10
2017,09,30,09,38,8.10
2017,09,30,09,39,8.10
2017,09,30,09,40,9.60
2017,09,30,09,41,9.60
2017,09,30,09,42,9.60
2017,09,30,09,43,9.60
2017,09,30,09,44,12.90
2017,09,30,09,45,9.60
2017,09,30,09,46,6.40
2017,09,30,09,47,9.60
2017,09,30,09,48,8.10
2017,09,30,09,49,11.30
2017,09,30,09,50,8.10
2017,09,30,09,51,9.60
2017,09,30,09,52,8.10
2017,09,30,09,53,8.10
2017,09,30,09,54,11.30
2017,09,30,09,55,9.60
2017,09,30,09,56,9.60
2017,09,30,09,57,9.60
2017,09,30,09,58,11.30
2017,09,30,09,59,9.60
2017,09,30,10,00,16.10
2017,09,30,10,01,9.60
2017,09,30,10,02,14.50
2017,09,30,10,03,9.60
2017,09,30,10,04,9.60
2017,09,30,10,05,9.60
2017,09,30,10,06,9.60
2017,09,30,10,07,11.30
2017,09,30,10,08,17.70
2017,09,30,10,09,16.10
2017,09,30,10,10,17.70
2017,09,30,10,11,19.30
2017,09,30,10,12,20.90
2017,09,30,10,13,16.10
2017,09,30,10,14,17.70
2017,09,30,10,15,19.30
2017,09,30,10,16,17.70
2017,09,30,10,17,9.60
2017,09,30,10,18,12.90
2017,09,30,10,19,17.70
2017,09,30,10,20,19.30
2017,09,30,10,21,14.50
2017,09,30,10,22,14.50
2017,09,30,10,23,16.10
2017,09,30,10,24,8.10
2017,09,30,10,25,11.30
2017,09,30,10,26,11.30
2017,09,30,10,27,11.30
2017,09,30,10,28,11.30
2017,09,30,10,29,14.50
2017,09,30,10,30,9.60
2017,09,30,10,31,8.10
2017,09,30,10,32,8.10
2017,09,30,10,33,8.10
2017,09,30,10,34,11.30
2017,09,30,10,35,8.10
2017,09,30,10,36,9.60
2017,09,30,10,37,11.30
2017,09,30,10,38,16.10
2017,09,30,10,39,14.50
2017,09,30,10,40,8.10
2017,09,30,10,41,6.40
2017,09,30,10,42,8.10
2017,09,30,10,43,4.80
2017,09,30,10,44,8.10
2017,09,30,10,45,8.10
2017,09,30,10,46,9.60
2017,09,30,10,47,8.10
2017,09,30,10,48,16.10
2017,09,30,10,49,6.40
2017,09,30,10,50,11.30
2017,09,30,10,51,16.10
2017,09,30,10,52,16.10
2017,09,30,10,53,14.50
2017,09,30,10,54,14.50
2017,09,30,10,55,14.50
2017,09,30,10,56,9.60
2017,09,30,10,57,14.50
2017,09,30,10,58,19.30
2017,09,30,10,59,17.70
2017,09,30,11,00,14.50
2017,09,30,11,01,16.10
2017,09,30,11,02,17.70
2017,09,30,11,03,11.30
2017,09,30,11,04,8.10
2017,09,30,11,05,16.10
2017,09,30,11,06,9.60
2017,09,30,11,07,9.60
2017,09,30,11,08,19.30
2017,09,30,11,09,8.10
2017,09,30,11,10,14.50
2017,09,30,11,11,11.30
2017,09,30,11,12,17.70
2017,09,30,11,13,16.10
2017,09,30,11,14,16.10
2017,09,30,11,15,11.30
2017,09,30,11,16,16.10
2017,09,30,11,17,16.10
2017,09,30,11,18,11.30
2017,09,30,11,19,16.10
2017,09,30,11,20,14.50
2017,09,30,11,21,8.10
2017,09,30,11,22,9.60
2017,09,30,11,23,6.40
2017,09,30,11,24,8.10
2017,09,30,11,25,9.60
2017,09,30,11,26,9.60
2017,09,30,11,27,11.30
2017,09,30,11,28,11.30
2017,09,30,11,29,9.60
2017,09,30,11,30,14.50
2017,09,30,11,31,11.30
2017,09,30,11,32,11.30
2017,09,30,11,33,9.60
2017,09,30,11,34,14.50
2017,09,30,11,35,8.10
2017,09,30,11,36,9.60
2017,09,30,11,37,12.90
2017,09,30,11,38,17.70
2017,09,30,11,39,20.90
2017,09,30,11,40,14.50
2017,09,30,11,41,9.60
2017,09,30,11,42,8.10
2017,09,30,11,43,11.30
2017,09,30,11,44,11.30
2017,09,30,11,45,16.10
2017,09,30,11,46,16.10
2017,09,30,11,47,17.70
2017,09,30,11,48,16.10
2017,09,30,11,49,24.20
2017,09,30,11,50,20.90
2017,09,30,11,51,16.10
2017,09,30,11,52,11.30
2017,09,30,11,53,9.60
2017,09,30,11,54,20.90
2017,09,30,11,55,9.60
2017,09,30,11,56,11.30
2017,09,30,11,57,11.30
2017,09,30,11,58,8.10
2017,09,30,11,59,14.50
2017,09,30,12,00,14.50
2017,09,30,12,01,9.60
2017,09,30,12,02,9.60
2017,09,30,12,03,6.40
2017,09,30,12,04,6.40
2017,09,30,12,05,9.60
2017,09,30,12,06,8.10
2017,09,30,12,07,4.80
2017,09,30,12,08,4.80
2017,09,30,12,09,4.80
2017,09,30,12,10,6.40
2017,09,30,12,11,9.60
2017,09,30,12,12,8.10
2017,09,30,12,13,6.40
2017,09,30,12,14,4.80
2017,09,30,12,15,3.20
2017,09,30,12,16,6.40
2017,09,30,12,17,4.80
2017,09,30,12,18,4.80
2017,09,30,12,19,6.40
2017,09,30,12,20,6.40
2017,09,30,12,21,8.10
2017,09,30,12,22,8.10
2017,09,30,12,23,8.10
2017,09,30,12,24,9.60
2017,09,30,12,25,6.40
2017,09,30,12,26,8.10
2017,09,30,12,27,6.40
2017,09,30,12,28,9.60
2017,09,30,12,29,11.30
2017,09,30,12,30,11.30
2017,09,30,12,31,4.80
2017,09,30,12,32,6.40
2017,09,30,12,33,8.10
2017,09,30,12,34,9.60
2017,09,30,12,35,14.50
2017,09,30,12,36,9.60
2017,09,30,12,37,8.10
2017,09,30,12,38,11.30
2017,09,30,12,39,11.30
2017,09,30,12,40,14.50
2017,09,30,12,41,9.60
2017,09,30,12,42,8.10
2017,09,30,12,43,14.50
2017,09,30,12,44,9.60
2017,09,30,12,45,12.90
2017,09,30,12,46,8.10
2017,09,30,12,47,8.10
2017,09,30,12,48,6.40
2017,09,30,12,49,16.10
2017,09,30,12,50,17.70
2017,09,30,12,51,9.60
2017,09,30,12,52,12.90
2017,09,30,12,53,9.60
2017,09,30,12,54,11.30
2017,09,30,12,55,8.10
2017,09,30,12,56,8.10
2017,09,30,12,57,11.30
2017,09,30,12,58,12.90
2017,09,30,12,59,8.10
2017,09,30,13,00,11.30
2017,09,30,13,01,16.10
2017,09,30,13,02,19.30
2017,09,30,13,03,19.30
2017,09,30,13,04,30.60
2017,09,30,13,05,29.00
2017,09,30,13,06,25.70
2017,09,30,13,07,29.00
2017,09,30,13,08,24.20
2017,09,30,13,09,17.70
2017,09,30,13,10,22.50
2017,09,30,13,11,16.10
2017,09,30,13,12,16.10
2017,09,30,13,13,17.70
2017,09,30,13,14,9.60
2017,09,30,13,15,6.40
2017,09,30,13,16,12.90
2017,09,30,13,17,17.70
2017,09,30,13,18,14.50
2017,09,30,13,19,12.90
2017,09,30,13,20,11.30
2017,09,30,13,21,11.30
2017,09,30,13,22,16.10
2017,09,30,13,23,16.10
2017,09,30,13,24,16.10
2017,09,30,13,25,17.70
2017,09,30,13,26,12.90
2017,09,30,13,27,9.60
2017,09,30,13,28,17.70
2017,09,30,13,29,19.30
2017,09,30,13,30,9.60
2017,09,30,13,31,19.30
2017,09,30,13,32,20.90
2017,09,30,13,33,17.70
2017,09,30,13,34,16.10
2017,09,30,13,35,17.70
2017,09,30,13,36,17.70
2017,09,30,13,37,17.70
2017,09,30,13,38,11.30
2017,09,30,13,39,11.30
2017,09,30,13,40,11.30
2017,09,30,13,41,14.50
2017,09,30,13,42,9.60
2017,09,30,13,43,11.30
2017,09,30,13,44,17.70
2017,09,30,13,45,14.50
2017,09,30,13,46,19.30
2017,09,30,13,47,17.70
2017,09,30,13,48,16.10
2017,09,30,13,49,22.50
2017,09,30,13,50,17.70
2017,09,30,13,51,11.30
2017,09,30,13,52,8.10
2017,09,30,13,53,11.30
2017,09,30,13,54,16.10
2017,09,30,13,55,14.50
2017,09,30,13,56,19.30
2017,09,30,13,57,17.70
2017,09,30,13,58,14.50
2017,09,30,13,59,8.10
2017,09,30,14,00,9.60
2017,09,30,14,01,14.50
2017,09,30,14,02,17.70
2017,09,30,14,03,19.30
2017,09,30,14,04,19.30
2017,09,30,14,05,20.90
2017,09,30,14,06,19.30
2017,09,30,14,07,20.90
2017,09,30,14,08,14.50
2017,09,30,14,09,12.90
2017,09,30,14,10,20.90
2017,09,30,14,11,11.30
2017,09,30,14,12,8.10
2017,09,30,14,13,16.10
2017,09,30,14,14,11.30
2017,09,30,14,15,14.50
2017,09,30,14,16,11.30
2017,09,30,14,17,12.90
2017,09,30,14,18,9.60
2017,09,30,14,19,14.50
2017,09,30,14,20,16.10
2017,09,30,14,21,11.30
2017,09,30,14,22,9.60
2017,09,30,14,23,11.30
2017,09,30,14,24,11.30
2017,09,30,14,25,8.10
2017,09,30,14,26,11.30
2017,09,30,14,27,17.70
2017,09,30,14,28,8.10
2017,09,30,14,29,11.30
2017,09,30,14,30,20.90
2017,09,30,14,31,16.10
2017,09,30,14,32,11.30
2017,09,30,14,33,20.90
2017,09,30,14,34,11.30
2017,09,30,14,35,22.50
2017,09,30,14,36,17.70
2017,09,30,14,37,12.90
2017,09,30,14,38,19.30
2017,09,30,14,39,11.30
2017,09,30,14,40,11.30
2017,09,30,14,41,17.70
2017,09,30,14,42,17.70
2017,09,30,14,43,19.30
2017,09,30,14,44,14.50
2017,09,30,14,45,11.30
2017,09,30,14,46,16.10
2017,09,30,14,47,14.50
2017,09,30,14,48,14.50
2017,09,30,14,49,20.90
2017,09,30,14,50,20.90
2017,09,30,14,51,19.30
2017,09,30,14,52,17.70
2017,09,30,14,53,17.70
2017,09,30,14,54,17.70
2017,09,30,14,55,16.10
2017,09,30,14,56,16.10
2017,09,30,14,57,19.30
2017,09,30,14,58,16.10
2017,09,30,14,59,11.30
2017,09,30,15,00,17.70
2017,09,30,15,01,17.70
2017,09,30,15,02,19.30
2017,09,30,15,03,19.30
2017,09,30,15,04,19.30
2017,09,30,15,05,16.10
2017,09,30,15,06,16.10
2017,09,30,15,07,17.70
2017,09,30,15,08,11.30
2017,09,30,15,09,11.30
2017,09,30,15,10,16.10
2017,09,30,15,11,16.10
2017,09,30,15,12,16.10
2017,09,30,15,13,20.90
2017,09,30,15,14,20.90
2017,09,30,15,15,24.20
2017,09,30,15,16,20.90
2017,09,30,15,17,20.90
2017,09,30,15,18,17.70
2017,09,30,15,19,11.30
2017,09,30,15,20,14.50
2017,09,30,15,21,14.50
2017,09,30,15,22,14.50
2017,09,30,15,23,9.60
2017,09,30,15,24,12.90
2017,09,30,15,25,11.30
2017,09,30,15,26,8.10
2017,09,30,15,27,16.10
2017,09,30,15,28,17.70
2017,09,30,15,29,16.10
2017,09,30,15,30,16.10
2017,09,30,15,31,9.60
2017,09,30,15,32,11.30
2017,09,30,15,33,16.10
2017,09,30,15,34,20.90
2017,09,30,15,35,22.50
2017,09,30,15,36,19.30
2017,09,30,15,37,20.90
2017,09,30,15,38,11.30
2017,09,30,15,39,16.10
2017,09,30,15,40,16.10
2017,09,30,15,41,14.50
2017,09,30,15,42,20.90
2017,09,30,15,43,20.90
2017,09,30,15,44,14.50
2017,09,30,15,45,19.30
2017,09,30,15,46,16.10
2017,09,30,15,47,16.10
2017,09,30,15,48,20.90
2017,09,30,15,49,12.90
2017,09,30,15,50,20.90
2017,09,30,15,51,22.50
2017,09,30,15,52,20.90
2017,09,30,15,53,24.20
2017,09,30,15,54,17.70
2017,09,30,15,55,14.50
2017,09,30,15,56,11.30
2017,09,30,15,57,16.10
2017,09,30,15,58,14.50
2017,09,30,15,59,16.10
2017,09,30,16,00,16.10
2017,09,30,16,01,20.90
2017,09,30,16,02,19.30
2017,09,30,16,03,19.30
2017,09,30,16,04,17.70
2017,09,30,16,05,17.70
2017,09,30,16,06,17.70
2017,09,30,16,07,19.30
2017,09,30,16,08,19.30
2017,09,30,16,09,19.30
2017,09,30,16,10,19.30
2017,09,30,16,11,17.70
2017,09,30,16,12,27.40
2017,09,30,16,13,22.50
2017,09,30,16,14,9.60
2017,09,30,16,15,9.60
2017,09,30,16,16,19.30
2017,09,30,16,17,22.50
2017,09,30,16,18,19.30
2017,09,30,16,19,14.50
2017,09,30,16,20,20.90
2017,09,30,16,21,16.10
2017,09,30,16,22,9.60
2017,09,30,16,23,16.10
2017,09,30,16,24,12.90
2017,09,30,16,25,17.70
2017,09,30,16,26,17.70
2017,09,30,16,27,16.10
2017,09,30,16,28,16.10
2017,09,30,16,29,17.70
2017,09,30,16,30,27.40
2017,09,30,16,31,20.90
2017,09,30,16,32,24.20
2017,09,30,16,33,22.50
2017,09,30,16,34,22.50
2017,09,30,16,35,17.70
2017,09,30,16,36,20.90
2017,09,30,16,37,17.70
2017,09,30,16,38,20.90
2017,09,30,16,39,20.90
2017,09,30,16,40,24.20
2017,09,30,16,41,22.50
2017,09,30,16,42,19.30
2017,09,30,16,43,19.30
2017,09,30,16,44,27.40
2017,09,30,16,45,32.20
2017,09,30,16,46,25.70
2017,09,30,16,47,24.20
2017,09,30,16,48,24.20
2017,09,30,16,49,24.20
2017,09,30,16,50,24.20
2017,09,30,16,51,24.20
2017,09,30,16,52,20.90
2017,09,30,16,53,16.10
2017,09,30,16,54,9.60
2017,09,30,16,55,11.30
2017,09,30,16,56,16.10
2017,09,30,16,57,14.50
2017,09,30,16,58,20.90
2017,09,30,16,59,16.10
2017,09,30,17,00,25.70
2017,09,30,17,01,19.30
2017,09,30,17,02,25.70
2017,09,30,17,03,24.20
2017,09,30,17,04,11.30
2017,09,30,17,05,11.30
2017,09,30,17,06,12.90
2017,09,30,17,07,9.60
2017,09,30,17,08,16.10
2017,09,30,17,09,14.50
2017,09,30,17,10,20.90
2017,09,30,17,11,11.30
2017,09,30,17,12,9.60
2017,09,30,17,13,9.60
2017,09,30,17,14,11.30
2017,09,30,17,15,16.10
2017,09,30,17,16,9.60
2017,09,30,17,17,14.50
2017,09,30,17,18,8.10
2017,09,30,17,19,8.10
2017,09,30,17,20,8.10
2017,09,30,17,21,8.10
2017,09,30,17,22,4.80
2017,09,30,17,23,6.40
2017,09,30,17,24,4.80
2017,09,30,17,25,6.40
2017,09,30,17,26,8.10
2017,09,30,17,27,11.30
2017,09,30,17,28,17.70
2017,09,30,17,29,9.60
2017,09,30,17,30,11.30
2017,09,30,17,31,9.60
2017,09,30,17,32,9.60
2017,09,30,17,33,16.10
2017,09,30,17,34,14.50
2017,09,30,17,35,12.90
2017,09,30,17,36,16.10
2017,09,30,17,37,9.60
2017,09,30,17,38,17.70
2017,09,30,17,39,17.70
2017,09,30,17,40,16.10
2017,09,30,17,41,16.10
2017,09,30,17,42,14.50
2017,09,30,17,43,17.70
2017,09,30,17,44,16.10
2017,09,30,17,45,9.60
2017,09,30,17,46,11.30
2017,09,30,17,47,14.50
2017,09,30,17,48,17.70
2017,09,30,17,49,9.60
2017,09,30,17,50,11.30
2017,09,30,17,51,16.10
2017,09,30,17,52,20.90
2017,09,30,17,53,17.70
2017,09,30,17,54,11.30
2017,09,30,17,55,14.50
2017,09,30,17,56,16.10
2017,09,30,17,57,17.70
2017,09,30,17,58,17.70
2017,09,30,17,59,19.30
2017,09,30,18,00,16.10
2017,09,30,18,01,19.30
2017,09,30,18,02,17.70
2017,09,30,18,03,16.10
2017,09,30,18,04,16.10
2017,09,30,18,05,19.30
2017,09,30,18,06,11.30
2017,09,30,18,07,9.60
2017,09,30,18,08,17.70
2017,09,30,18,09,16.10
2017,09,30,18,10,16.10
2017,09,30,18,11,14.50
2017,09,30,18,12,9.60
2017,09,30,18,13,11.30
2017,09,30,18,14,16.10
2017,09,30,18,15,17.70
2017,09,30,18,16,14.50
2017,09,30,18,17,12.90
2017,09,30,18,18,19.30
2017,09,30,18,19,17.70
2017,09,30,18,20,16.10
2017,09,30,18,21,9.60
2017,09,30,18,22,16.10
2017,09,30,18,23,11.30
2017,09,30,18,24,12.90
2017,09,30,18,25,14.50
2017,09,30,18,26,14.50
2017,09,30,18,27,9.60
2017,09,30,18,28,12.90
2017,09,30,18,29,9.60
2017,09,30,18,30,11.30
2017,09,30,18,31,11.30
2017,09,30,18,32,16.10
2017,09,30,18,33,11.30
2017,09,30,18,34,11.30
2017,09,30,18,35,16.10
2017,09,30,18,36,9.60
2017,09,30,18,37,8.10
2017,09,30,18,38,9.60
2017,09,30,18,39,8.10
2017,09,30,18,40,8.10
2017,09,30,18,41,8.10
2017,09,30,18,42,11.30
2017,09,30,18,43,8.10
2017,09,30,18,44,9.60
2017,09,30,18,45,17.70
2017,09,30,18,46,11.30
2017,09,30,18,47,11.30
2017,09,30,18,48,8.10
2017,09,30,18,49,11.30
2017,09,30,18,50,11.30
2017,09,30,18,51,11.30
2017,09,30,18,52,6.40
2017,09,30,18,53,4.80
2017,09,30,18,54,6.40
2017,09,30,18,55,11.30
2017,09,30,18,56,8.10
2017,09,30,18,57,8.10
2017,09,30,18,58,4.80
2017,09,30,18,59,9.60
2017,09,30,19,00,6.40
2017,09,30,19,01,6.40
2017,09,30,19,02,8.10
2017,09,30,19,03,6.40
2017,09,30,19,04,6.40
2017,09,30,19,05,8.10
2017,09,30,19,06,6.40
2017,09,30,19,07,6.40
2017,09,30,19,08,8.10
2017,09,30,19,09,6.40
2017,09,30,19,10,4.80
2017,09,30,19,11,6.40
2017,09,30,19,12,9.60
2017,09,30,19,13,8.10
2017,09,30,19,14,8.10
2017,09,30,19,15,6.40
2017,09,30,19,16,6.40
2017,09,30,19,17,9.60
2017,09,30,19,18,4.80
2017,09,30,19,19,4.80
2017,09,30,19,20,4.80
2017,09,30,19,21,4.80
2017,09,30,19,22,8.10
2017,09,30,19,23,8.10
2017,09,30,19,24,9.60
2017,09,30,19,25,8.10
2017,09,30,19,26,6.40
2017,09,30,19,27,6.40
2017,09,30,19,28,4.80
2017,09,30,19,29,6.40
2017,09,30,19,30,4.80
2017,09,30,19,31,4.80
2017,09,30,19,32,4.80
2017,09,30,19,33,4.80
2017,09,30,19,34,4.80
2017,09,30,19,35,6.40
2017,09,30,19,36,4.80
2017,09,30,19,37,6.40
2017,09,30,19,38,4.80
2017,09,30,19,39,3.20
2017,09,30,19,40,3.20
2017,09,30,19,41,3.20
2017,09,30,19,42,4.80
2017,09,30,19,43,3.20
2017,09,30,19,44,3.20
2017,09,30,19,45,4.80
2017,09,30,19,46,4.80
2017,09,30,19,47,4.80
2017,09,30,19,48,3.20
2017,09,30,19,49,4.80
2017,09,30,19,50,4.80
2017,09,30,19,51,3.20
2017,09,30,19,52,4.80
2017,09,30,19,53,4.80
2017,09,30,19,54,4.80
2017,09,30,19,55,4.80
2017,09,30,19,56,6.40
2017,09,30,19,57,4.80
2017,09,30,19,58,4.80
2017,09,30,19,59,4.80
2017,09,30,20,00,4.80
2017,09,30,20,01,3.20
2017,09,30,20,02,4.80
2017,09,30,20,03,4.80
2017,09,30,20,04,4.80
2017,09,30,20,05,3.20
2017,09,30,20,06,3.20
2017,09,30,20,07,1.60
2017,09,30,20,08,1.60
2017,09,30,20,09,1.60
2017,09,30,20,24,3.20
2017,09,30,20,25,1.60
2017,09,30,21,10,1.60
2017,09,30,21,11,1.60
